Regional Weather Roundup
Issued by NWS

Home | Current Version | Previous Version | Text Only | Print | Product List | Glossary Off
Versions: 1 2 3 4 5 6 7 8 9 10 11 12 13 14 15 16 17 18 19 20 21 22 23 24 25 26 27 28 29 30 31 32 33 34 35 36 37 38 39 40 41 42 43 44 45 46 47 48 49 50

000
ASUS43 KIND 261200
RWRIN

WEATHER ROUNDUP FOR INDIANA
NATIONAL WEATHER SERVICE INDIANAPOLIS IN
800 AM EDT SAT MAY 26 2018

NOTE: "FAIR" INDICATES FEW OR NO CLOUDS BELOW 12,000 FEET WITH NO
SIGNIFICANT WEATHER AND/OR OBSTRUCTIONS TO VISIBILITY.

* - STATION DOES NOT REPORT WEATHER SUCH AS PRECIPITATION OR FOG.

+ - STATION NOT QUALITY CONTROLLED BY THE NATIONAL WEATHER SERVICE.
    USE DATA WITH CAUTION...ESPECIALLY DEWPOINT AND RELATIVE
    HUMIDITY OBSERVATIONS.

INZ001>003-010>013-019-020-261300-
NORTHWEST INDIANA

CITY           SKY/WX    TMP DP  RH WIND       PRES   REMARKS
KNOX *+        FAIR      70  66  88 CALM      29.80R
MICHIGAN CITY+ FAIR      68  64  88 S7        29.79S
MONTICELLO +   CLOUDY    68  67  95 SW6       29.81S
6HR MIN TEMP:  68; 6HR MAX TEMP:  71; 6HR PCP:  0.01;


$$

LMZ046-743>745-261300-
SOUTHERN LAKE MICHIGAN

STATION/POSITION TIME  TEMP    WIND        PRES    WAVE
                       AIR SEA DIR/SP/G            HT
                 (UTC) (F)     (DEG/KT/KT) (MB)    (FT)
BURNS HARBOR     1140   69     190/  8/ 11 1009.1R
MICHIGAN CITY    1130   70     160/  9/ 11   N/A
5NW MICH CITY    1150   65 60  210/  8/ 10   N/A     0

$$

INZ004-005-014>016-021>024-261300-
NORTH CENTRAL INDIANA

CITY           SKY/WX    TMP DP  RH WIND       PRES   REMARKS
ELKHART        SUNNY     68  64  88 MISG      29.80
GOSHEN         PTSUNNY   70  66  87 S7        29.81R FOG
6HR MIN TEMP:  68; 6HR MAX TEMP:  72; 6HR PCP: TRACE;

SOUTH BEND     PTSUNNY   69  66  90 S7        29.80S
6HR MIN TEMP:  67; 6HR MAX TEMP:  73; 6HR PCP:  0.08;

WARSAW +       CLOUDY    68  68 100 CALM      29.82S

$$

INZ006>009-017-018-025>027-261300-
NORTHEAST INDIANA

CITY           SKY/WX    TMP DP  RH WIND       PRES   REMARKS
ANGOLA *+      FAIR      68  64  88 CALM      29.82R
AUBURN +       FAIR      68  64  88 CALM      29.84R
FORT WAYNE     PTSUNNY   72  64  76 SW5       29.84R
6HR MIN TEMP:  69; 6HR MAX TEMP:  73; 6HR PCP: TRACE;

KENDALLVILLE + FAIR      69  62  80 SW3       29.83R

$$

INZ028-029-035-036-043>045-051>053-261300-
WEST CENTRAL INDIANA

CITY           SKY/WX    TMP DP  RH WIND       PRES   REMARKS
CRAWFORDSVL +  PTSUNNY   68  66  94 S10       29.84R
6HR MIN TEMP:  65; 6HR MAX TEMP:  72;

GREENCASTLE +  PTSUNNY   68  64  88 CALM      29.86R
LAFAYETTE      CLOUDY    68  66  93 S3        29.82R
6HR MIN TEMP:  67; 6HR MAX TEMP:  69;

TERRE HAUTE    CLOUDY    69  67  93 S6        29.85R
6HR MIN TEMP:  68; 6HR MAX TEMP:  72;


$$

INZ030>032-037>040-046>048-054>057-064-065-261300-
CENTRAL INDIANA

CITY           SKY/WX    TMP DP  RH WIND       PRES   REMARKS
ANDERSON       FAIR      71  65  81 SW6       29.86R
COLUMBUS       SUNNY     70  63  78 CALM      29.88R
FRANKFORT +    CLOUDY    72  67  84 SW8       29.85S
                                      6HR PCP:  0.01;

GREENWOOD *+   FAIR      69  65  85 SW5       29.86R
6HR MIN TEMP:  67; 6HR MAX TEMP:  73;

INDIANAPOLIS   PTSUNNY   70  66  87 SW6       29.85R
6HR MIN TEMP:  68; 6HR MAX TEMP:  74;

-EAGLE CREEK   FAIR      71  65  81 SW3       29.84R
6HR MIN TEMP:  70; 6HR MAX TEMP:  75;

KOKOMO +       PTSUNNY   71  64  78 SW8       29.84S
6HR MIN TEMP:  68; 6HR MAX TEMP:  76; 6HR PCP: TRACE;

MT COMFORT *+  FAIR      70  68  94 SW6       29.86R
SHELBYVILLE    FAIR      72  64  76 S8        29.86R
6HR MIN TEMP:  70; 6HR MAX TEMP:  75;


$$

INZ033-034-041-042-049-050-058-059-261300-
EAST CENTRAL INDIANA

CITY           SKY/WX    TMP DP  RH WIND       PRES   REMARKS
MUNCIE         FAIR      73  65  75 SW5       29.85R
6HR MIN TEMP:  72; 6HR MAX TEMP:  75; 6HR PCP: TRACE;

RICHMOND +     FAIR      70  64  83 SW9       29.88S

$$

INZ060-061-067>069-081>083-085>088-261300-
SOUTHWEST INDIANA

CITY           SKY/WX    TMP DP  RH WIND       PRES   REMARKS
EVANSVILLE     PTSUNNY   72  70  93 SW7       29.88R
6HR MIN TEMP:  69; 6HR MAX TEMP:  73;

HUNTINGBURG +  CLOUDY    71  69  93 S5        29.89R
6HR MIN TEMP:  69; 6HR MAX TEMP:  71;


$$

INZ062-063-066-070>080-084-089>092-261300-
SOUTH CENTRAL AND SOUTHEAST INDIANA

CITY           SKY/WX    TMP DP  RH WIND       PRES   REMARKS
BLOOMINGTON    FAIR      71  68  90 SW7       29.86R
6HR MIN TEMP:  69; 6HR MAX TEMP:  73;

FRENCH LICK *+ FAIR      68 N/A N/A SW5       29.90R
SEYMOUR +      FAIR      72  66  83 S3        29.88R

$$





USA.gov is the U.S. government's official web portal to all federal, state and local government web resources and services.